Stündliche Wetter Czyzewo

Heute, 31 Oktober, Samstag

Zeit Temperatur Niederschläge Wind Luftdruck Luftfeuchtigkeit
00:00 +8°C° 0 mm 1 m/S 745 mmHg 94%
01:00 +7°C° 0 mm 1 m/S 746 mmHg 94%
02:00 +7°C° 0 mm 1 m/S 746 mmHg 93%
03:00 +7°C° 0 mm 1 m/S 746 mmHg 93%
04:00 +7°C° 0 mm 1 m/S 747 mmHg 93%
05:00 +7°C° 0 mm 1 m/S 747 mmHg 92%
06:00 +6°C° 0 mm 1 m/S 747 mmHg 92%
07:00 +5°C° 0 mm 2 m/S 747 mmHg 91%
08:00 +6°C° 0 mm 2 m/S 748 mmHg 87%
09:00 +7°C° 0 mm 2 m/S 748 mmHg 82%
10:00 +9°C° 0 mm 2 m/S 749 mmHg 77%
11:00 +9°C° 0 mm 2 m/S 749 mmHg 74%
12:00 +10°C° 0 mm 2 m/S 748 mmHg 72%
13:00 +11°C° 0 mm 3 m/S 748 mmHg 70%
14:00 +10°C° 0 mm 2 m/S 748 mmHg 73%
15:00 +9°C° 0 mm 2 m/S 748 mmHg 77%
16:00 +9°C° 0 mm 2 m/S 748 mmHg 81%
17:00 +8°C° 0 mm 3 m/S 748 mmHg 82%
18:00 +8°C° 0 mm 3 m/S 748 mmHg 84%
19:00 +7°C° 0 mm 3 m/S 748 mmHg 86%
20:00 +6°C° 0 mm 4 m/S 748 mmHg 86%
21:00 +6°C° 0 mm 4 m/S 747 mmHg 87%
22:00 +6°C° 0 mm 4 m/S 747 mmHg 87%
23:00 +6°C° 0 mm 4 m/S 747 mmHg 87%

Morgen, 1 November, Sonntag

Zeit Temperatur Niederschläge Wind Luftdruck Luftfeuchtigkeit
00:00 +6°C° 0 mm 4 m/S 747 mmHg 86%
01:00 +6°C° 0 mm 4 m/S 747 mmHg 86%
02:00 +6°C° 0 mm 4 m/S 746 mmHg 84%
03:00 +6°C° 0 mm 5 m/S 746 mmHg 83%
04:00 +6°C° 0 mm 5 m/S 745 mmHg 82%
05:00 +6°C° 0 mm 5 m/S 745 mmHg 82%
06:00 +6°C° 0 mm 5 m/S 744 mmHg 82%
07:00 +6°C° 0 mm 5 m/S 744 mmHg 82%
08:00 +7°C° 0 mm 5 m/S 744 mmHg 82%
09:00 +7°C° 0 mm 5 m/S 744 mmHg 82%
10:00 +8°C° 0 mm 5 m/S 743 mmHg 81%
11:00 +8°C° 0 mm 5 m/S 743 mmHg 82%
12:00 +10°C° 0 mm 4 m/S 742 mmHg 82%
13:00 +10°C° 0 mm 4 m/S 742 mmHg 83%
14:00 +10°C° 0.6 mm 4 m/S 741 mmHg 86%
15:00 +10°C° 0.6 mm 4 m/S 741 mmHg 89%
16:00 +10°C° 0.6 mm 4 m/S 740 mmHg 93%
17:00 +10°C° 1 mm 4 m/S 740 mmHg 93%
18:00 +10°C° 1 mm 4 m/S 740 mmHg 93%
19:00 +10°C° 1 mm 4 m/S 739 mmHg 93%
20:00 +10°C° 0.1 mm 4 m/S 739 mmHg 94%
21:00 +10°C° 0.1 mm 4 m/S 739 mmHg 94%
22:00 +10°C° 0.1 mm 4 m/S 738 mmHg 94%
23:00 +11°C° 0.1 mm 4 m/S 738 mmHg 94%

übermorgen, 2 November, Montag

Zeit Temperatur Niederschläge Wind Luftdruck Luftfeuchtigkeit
00:00 +11°C° 0.1 mm 4 m/S 738 mmHg 94%
01:00 +11°C° 0.1 mm 4 m/S 738 mmHg 93%
02:00 +11°C° 0 mm 4 m/S 738 mmHg 93%
03:00 +11°C° 0 mm 4 m/S 738 mmHg 93%
04:00 +12°C° 0 mm 4 m/S 738 mmHg 93%
05:00 +11°C° 0 mm 3 m/S 739 mmHg 93%
06:00 +10°C° 0 mm 3 m/S 739 mmHg 93%
07:00 +9°C° 0 mm 3 m/S 739 mmHg 94%
08:00 +10°C° 0 mm 3 m/S 740 mmHg 90%
09:00 +10°C° 0 mm 3 m/S 740 mmHg 86%
10:00 +11°C° 0 mm 3 m/S 740 mmHg 82%
11:00 +11°C° 0 mm 3 m/S 740 mmHg 84%
12:00 +12°C° 0 mm 4 m/S 740 mmHg 85%
13:00 +12°C° 0 mm 4 m/S 740 mmHg 86%
14:00 +13°C° 0 mm 4 m/S 740 mmHg 88%
15:00 +13°C° 0 mm 4 m/S 740 mmHg 91%
16:00 +13°C° 0 mm 4 m/S 740 mmHg 93%
17:00 +13°C° 0 mm 4 m/S 740 mmHg 93%
18:00 +14°C° 0 mm 4 m/S 740 mmHg 94%
19:00 +14°C° 0 mm 4 m/S 740 mmHg 94%
20:00 +14°C° 0 mm 4 m/S 740 mmHg 93%
21:00 +14°C° 0 mm 4 m/S 740 mmHg 92%
22:00 +14°C° 0 mm 4 m/S 740 mmHg 90%
23:00 +14°C° 0 mm 4 m/S 740 mmHg 89%

3 November, Dienstag

Zeit Temperatur Niederschläge Wind Luftdruck Luftfeuchtigkeit
00:00 +14°C° 0 mm 4 m/S 741 mmHg 88%
01:00 +14°C° 0 mm 5 m/S 741 mmHg 87%
02:00 +14°C° 0.1 mm 4 m/S 741 mmHg 88%
03:00 +14°C° 0.1 mm 4 m/S 742 mmHg 88%
04:00 +14°C° 0.1 mm 4 m/S 742 mmHg 89%
05:00 +13°C° 0 mm 4 m/S 743 mmHg 86%
06:00 +12°C° 0 mm 4 m/S 743 mmHg 83%
07:00 +12°C° 0 mm 4 m/S 744 mmHg 81%
08:00 +10°C° 0 mm 5 m/S 744 mmHg 75%
09:00 +10°C° 0 mm 5 m/S 745 mmHg 70%
10:00 +10°C° 0 mm 6 m/S 746 mmHg 64%
11:00 +10°C° 0 mm 6 m/S 746 mmHg 62%
12:00 +10°C° 0 mm 6 m/S 746 mmHg 61%
13:00 +10°C° 0 mm 6 m/S 746 mmHg 59%
14:00 +10°C° 0 mm 5 m/S 747 mmHg 61%
15:00 +9°C° 0 mm 5 m/S 747 mmHg 64%
16:00 +10°C° 0 mm 4 m/S 747 mmHg 66%
17:00 +8°C° 0 mm 4 m/S 748 mmHg 65%
18:00 +8°C° 0 mm 4 m/S 748 mmHg 64%
19:00 +8°C° 0 mm 5 m/S 748 mmHg 63%
20:00 +7°C° 0 mm 4 m/S 748 mmHg 64%
21:00 +7°C° 0 mm 4 m/S 749 mmHg 64%
22:00 +6°C° 0 mm 4 m/S 749 mmHg 65%
23:00 +7°C° 0 mm 3 m/S 749 mmHg 68%

4 November, Mittwoch

Zeit Temperatur Niederschläge Wind Luftdruck Luftfeuchtigkeit
00:00 +7°C° 0 mm 3 m/S 749 mmHg 71%
01:00 +5°C° 0 mm 3 m/S 749 mmHg 74%
02:00 +5°C° 0 mm 3 m/S 749 mmHg 77%
03:00 +4°C° 0 mm 3 m/S 749 mmHg 80%
04:00 +4°C° 0 mm 3 m/S 750 mmHg 84%
05:00 +4°C° 0 mm 3 m/S 750 mmHg 85%
06:00 +3°C° 0 mm 3 m/S 750 mmHg 86%
07:00 +3°C° 0 mm 3 m/S 750 mmHg 87%
08:00 +4°C° 0 mm 4 m/S 751 mmHg 82%
09:00 +5°C° 0 mm 4 m/S 751 mmHg 77%
10:00 +6°C° 0 mm 5 m/S 751 mmHg 72%
11:00 +6°C° 0 mm 4 m/S 752 mmHg 70%
12:00 +7°C° 0 mm 4 m/S 752 mmHg 68%
13:00 +7°C° 0 mm 4 m/S 752 mmHg 66%
14:00 +7°C° 0 mm 4 m/S 752 mmHg 68%
15:00 +7°C° 0 mm 3 m/S 752 mmHg 70%
16:00 +7°C° 0 mm 3 m/S 753 mmHg 72%
17:00 +5°C° 0 mm 3 m/S 753 mmHg 76%
18:00 +6°C° 0 mm 2 m/S 754 mmHg 80%
19:00 +5°C° 0 mm 2 m/S 754 mmHg 84%
20:00 +5°C° 0 mm 2 m/S 754 mmHg 85%
21:00 +5°C° 0 mm 2 m/S 754 mmHg 87%
22:00 +3°C° 0 mm 3 m/S 755 mmHg 88%
23:00 +4°C° 0 mm 2 m/S 755 mmHg 90%

5 November, Donnerstag

Zeit Temperatur Niederschläge Wind Luftdruck Luftfeuchtigkeit
00:00 +4°C° 0 mm 2 m/S 755 mmHg 91%
01:00 +4°C° 0 mm 2 m/S 755 mmHg 93%
02:00 +3°C° 0 mm 2 m/S 755 mmHg 94%
03:00 +3°C° 0 mm 2 m/S 755 mmHg 95%
04:00 +3°C° 0 mm 2 m/S 756 mmHg 96%
05:00 +3°C° 0 mm 2 m/S 756 mmHg 96%
06:00 +3°C° 0 mm 2 m/S 756 mmHg 97%
07:00 +2°C° 0 mm 3 m/S 756 mmHg 97%
08:00 +3°C° 0 mm 3 m/S 756 mmHg 94%
09:00 +4°C° 0 mm 3 m/S 757 mmHg 92%
10:00 +5°C° 0 mm 4 m/S 757 mmHg 89%
11:00 +6°C° 0 mm 4 m/S 757 mmHg 86%
12:00 +6°C° 0 mm 4 m/S 757 mmHg 83%
13:00 +7°C° 0 mm 4 m/S 757 mmHg 80%
14:00 +7°C° 0 mm 4 m/S 757 mmHg 80%
15:00 +7°C° 0 mm 4 m/S 757 mmHg 79%
16:00 +7°C° 0 mm 4 m/S 757 mmHg 79%
17:00 +6°C° 0 mm 4 m/S 757 mmHg 81%
18:00 +6°C° 0 mm 4 m/S 757 mmHg 83%
19:00 +6°C° 0 mm 4 m/S 757 mmHg 84%
20:00 +6°C° 0 mm 4 m/S 757 mmHg 85%
21:00 +6°C° 0 mm 4 m/S 758 mmHg 85%
22:00 +6°C° 0 mm 4 m/S 758 mmHg 85%
23:00 +6°C° 0 mm 4 m/S 758 mmHg 87%
Mehr zeigen

Wir brauchen deine Erlaubnis

Meteoprog und unser Service Anbieter werden persönliche Daten aufbewahren, so wie Cookies, Geräte Bezeichnung oder ähnliche Technologien von deinem Gerät und Prozess, so wie Persönliche Daten Inhalte und Werbungen, genauso wie social Media und den Verkehr zu analysieren.

  • Aufbewahrung und/oder Zugang zu deiner Geräte Informationen.

    Cookies, Geräte Bezeichnung oder andere Informationen, können aufbewahrt oder Zugang zu deinem Gerät erhalten, für den Grund, der oben angegeben wird.

  • Personalisierte Werbung und Inhalte, Messungen, Einblick in das Publikum und Produkt Entwicklung.

    Werbungen und Inhalte können personalisiert werden, basierend auf ein Profil. Mehr Daten können besser personalisierte Werbungen und Inhalte hinzufügen. Werbung und Inhalte können gezeigt und gemessen werden. Einblicke über das Publikum, welche die Werbung gesehen haben und den Inhalt, können abgeleitet werden. So wie Daten können genutzt werden, um es zu verbessern oder die Benutzer Erfahrung zu verbessern das System und die Software.

Wenn du “Ich stimme zu” klickst, erlaubst du uns, die Cookies zu benutzen die Geräte Bezeichnung, den Web oder ähnliche Technologien zu benutzen. Deine Settings, können in deinem Gerät bei deinem Browser geändert werden.

Für den bestimmten Zweck, berechtigten Interessen beruhen darauf, mehr als auf den Inhalt. Du kannst mehr darüber in unseren Privaten und Cookie Politik lesen.